Location: The Saddle
(36.8333°N, 80.3417°W)
Time: 10:44:45
(UTC-05:00)

S-56A Canister/Altair - Pass Details

Date: 13 December 2023
Orbit: 640 x 2488 km, 38.9° (Epoch: 25 February)

Event Time Altitude Azimuth Distance (km) Brightness Sun altitude
Rises 12:03:31 0° 278° (W) 3,445 10.8 29.9°
Reaches altitude 10° 12:06:19 10° 281° (W) 2,323 10.0 30.0°
Maximum altitude 12:11:26 72° 5° (N) 702 7.6 30.0°
Drops below altitude 10° 12:15:52 10° 91° (E) 2,022 9.8 30.0°
Sets 12:18:09 0° 93° (E) 2,957 10.6 30.0°
